Regional Weather Roundup
Issued by NWS Northern Indiana

Home | Current Version | Previous Version | Text Only | Print | Product List | Glossary Off
Versions: 1 2 3 4 5 6 7 8 9 10 11 12 13 14 15 16 17 18 19 20 21 22 23 24 25 26 27 28 29 30 31 32 33 34 35 36 37 38 39 40 41 42 43 44 45 46 47 48 49 50

000
ASUS43 KIWX 230701
RWRIWX

KIWX WEATHER ROUNDUP
NATIONAL WEATHER SERVICE NORTHERN INDIANA
300 AM EDT SAT SEP 23 2017

NOTE: "FAIR" INDICATES FEW OR NO CLOUDS BELOW 12,000 FEET WITH NO
SIGNIFICANT WEATHER AND/OR OBSTRUCTIONS TO VISIBILITY.

* THESE STATIONS ARE NOT UNDER NWS QUALITY CONTROL. THEY ALSO MAY NOT
  REPORT WEATHER SUCH AS PRECIPITATION OR FOG.

INZ001>027-230800-
NORTHERN INDIANA

CITY           SKY/WX    TMP DP  RH WIND       PRES   REMARKS
MICHIGAN CITY* CLEAR     68  68 100 CALM      30.06S
SOUTH BEND     CLEAR     71  68  90 CALM      30.07S
GOSHEN         CLEAR     68  64  87 CALM      30.08R
FORT WAYNE     CLEAR     68  65  90 N3        30.08S

$$
INZ028>050-230800-
CENTRAL INDIANA

CITY           SKY/WX    TMP DP  RH WIND       PRES   REMARKS
LAFAYETTE      CLEAR     68  68 100 CALM      30.04F
KOKOMO*        CLEAR     68  67  96 CALM      30.07S
MUNCIE*        CLEAR     68  65  90 SW3       30.07S FOG
INDIANAPOLIS   NOT AVBL

$$
MIZ043>046-050>051-056>058-064>065-071>073-077>080-230800-
SOUTHWEST LOWER MICHIGAN

CITY           SKY/WX    TMP DP  RH WIND       PRES   REMARKS
BATTLE CREEK   CLEAR     70  66  87 S6        30.08F
BENTON HARBOR  CLEAR     67  65  93 SE3       30.05S
HOLLAND        CLEAR     69  64  84 CALM      30.06S
GRAND RAPIDS   CLEAR     69  66  90 SE6       30.06F
KALAMAZOO      CLEAR     67  62  84 S3        30.08F

$$
OHZ001>008-015>018-024>025-230800-
NORTHWEST OHIO

CITY           SKY/WX    TMP DP  RH WIND       PRES   REMARKS
DEFIANCE       CLEAR     64  62  93 CALM      30.07F
FINDLAY        CLEAR     67  61  81 CALM      30.07F
TOLEDO EXPRESS CLEAR     65  65 100 CALM      30.08S
TOLEDO METCALF CLEAR     66  64  93 CALM      30.09S
LIMA           CLEAR     66  63  90 CALM      30.08S

$$
AND FOR LAKE MICHIGAN COASTAL AND OPEN LAKE BUOY OBSERVATIONS

STATION/POSITION TEMP    WIND        PRES    VSBY  WAVE
                 AIR SEA DIR/SP/G                  HT/PER
                 (F)     (DEG/KT/KT) (MB)    (MI)  (FT/S)
CALUMET HARBOR    79     190/  4/  5 1016.7R
MICHIGAN CITY     78     140/  9/  9   N/A
BURNS HARBOR      76     180/  5/  8 1017.9R
SAINT JOSEPH      75     140/  1/  4 1017.6
SOUTH LAKE BUOY   74 70  160/  8/  8 1016.8          0
4 MI NW BRIDGMAN  75 72  180/  2/  2 1017.3R         0
MICHIGAN CITY     73 72  180/  4/  4   N/A           0

$$
&&




USA.gov is the U.S. government's official web portal to all federal, state and local government web resources and services.